Regional Weather Roundup
Issued by NWS

Home | Current Version | Previous Version | Graphics & Text | Print | Product List | Glossary On
Versions: 1 2 3 4 5 6 7 8 9 10 11 12 13 14 15 16 17 18 19 20 21 22 23 24 25 26 27 28 29 30 31 32 33 34 35 36 37 38 39 40 41 42 43 44 45 46 47 48 49 50
000
ASUS45 KPSR 301710
RWRAZ

ARIZONA REGIONAL HOURLY WEATHER ROUNDUP
NATIONAL WEATHER SERVICE PHOENIX AZ
1000 AM MST TUE SEP 30 2014

NOTE: FAIR INDICATES FEW OR NO CLOUDS BELOW 12,000 FEET WITH NO
SIGNIFICANT WEATHER AND/OR OBSTRUCTIONS TO VISIBILITY.

AZZ001>003-036-301800-
NORTHWEST ARIZONA

CITY           SKY/WX    TMP DP  RH WIND       PRES   REMARKS
BULLHEAD CITY  SUNNY     77  39  25 CALM      29.89S
KINGMAN        NOT AVBL
$$

AZZ004>008-015-016-018-301800-
NORTH CENTRAL ARIZONA

CITY           SKY/WX    TMP DP  RH WIND       PRES   REMARKS
GRAND CANYON   SUNNY     59  34  39 VRB5      30.12S
PRESCOTT       SUNNY     63  40  42 N5        30.06S
FLAGSTAFF      SUNNY     58  35  42 SW6       30.13S
PAYSON         SUNNY     68  37  32 S6        30.07F
$$

AZZ009>014-017-301800-
NORTHEAST ARIZONA

CITY           SKY/WX    TMP DP  RH WIND       PRES   REMARKS
WINSLOW        SUNNY     63  42  46 CALM      30.05S
SAINT JOHNS    SUNNY     60  37  42 CALM      30.07S
WINDOW ROCK    SUNNY     60  34  37 W5        30.10F
SHOW LOW       SUNNY     59  32  36 S5        30.13S
$$

AZZ023-301800-
GREATER PHOENIX AREA

CITY           SKY/WX    TMP DP  RH WIND       PRES   REMARKS
PHOENIX        SUNNY     77  48  35 E6        29.87S
BUCKEYE          N/A     73  50  43 S3        29.88F
GLENDALE       SUNNY     73  52  46 N3        29.90R
LUKE AFB       SUNNY     74  51  44 NE3       29.87S
DEER VALLEY    SUNNY     76  46  34 S3        29.88S
SCOTTSDALE     SUNNY     77  50  38 CALM      29.90S
MESA-FALCON    SUNNY     73  48  40 NE6       29.88
MESA-GATEWAY   SUNNY     73  50  43 SE5       29.91R
CHANDLER       SUNNY     75  50  41 CALM      29.89S
$$

AZZ027-028-301800-
SOUTHWEST MARICOPA COUNTY AND PINAL COUNTY

CITY           SKY/WX    TMP DP  RH WIND       PRES   REMARKS
CASA GRANDE    SUNNY     75  45  33 CALM      29.90S
GILA BEND      SUNNY     77  46  33 NE2       29.90R
$$

AZZ503-504-507>509-301800-
SOUTHEAST ARIZONA

CITY           SKY/WX    TMP DP  RH WIND       PRES   REMARKS
TUCSON         SUNNY     76  44  32 VRB5      29.95F
DAVIS-MONTHAN  SUNNY     76  43  30 SE5       29.94F
RYAN FIELD       N/A     77  43  29 E3        29.95S
NOGALES        SUNNY     73  52  47 CALM      30.00S
SIERRA VISTA   MOSUNNY   72  52  49 SE5       30.04S
DOUGLAS        SUNNY     73  53  49 CALM      30.01F
SAFFORD        SUNNY     73  39  29 NW3       29.96S
$$

AZZ020-021-025-026-031-301800-
SOUTHWEST ARIZONA

CITY           SKY/WX    TMP DP  RH WIND       PRES   REMARKS
YUMA           MOSUNNY   85  39  19 N6        29.83S
$$

CAZ031-033-041-043-047-048-061-301800-
SOUTHERN CALIFORNIA

CITY           SKY/WX    TMP DP  RH WIND       PRES   REMARKS
DOWNTOWN L.A.  SUNNY     76  54  46 VRB3      29.86S
L.A. AIRPORT   MOSUNNY   74  57  55 E3        29.87S
SAN DIEGO      SUNNY     73  58  59 CALM      29.87F
BURBANK        SUNNY     73  50  44 CALM      29.88S
ONTARIO        SUNNY     77  42  28 CALM      29.89S
RIVERSIDE      SUNNY     76  52  43 CALM      29.89S
PALM SPRINGS   SUNNY     84  42  22 CALM      29.86F
EL CENTRO NAS  SUNNY     84  46  26 W3        29.82F
IMPERIAL       SUNNY     82  52  35 W5        29.82S
BLYTHE         SUNNY     79  42  26 E5        29.85S
NEEDLES        SUNNY     78  41  26 SE3       29.88S
$$

NVZ020-UTZ003-301800-
SOUTHERN NEVADA-UTAH

CITY           SKY/WX    TMP DP  RH WIND       PRES   REMARKS
LAS VEGAS      MOSUNNY   74  39  28 S7        29.91R
SALT LAKE CITY MOSUNNY   63  48  59 SE7         N/A
$$

NMZ009-TXZ055-301800-
NEW MEXICO-WEST TEXAS

CITY           SKY/WX    TMP DP  RH WIND       PRES   REMARKS
ALBUQUERQUE    SUNNY     61  34  36 W6        30.05F
EL PASO        SUNNY     79  51  37 W14       29.97S
$$


........................KEY........................
SKY/WX - SKY CONDITION/WEATHER
TMP    - TEMPERATURE IN FAHRENHEIT
DP     - DEW POINT IN FAHRENHEIT
RH     - RELATIVE HUMIDITY IN PERCENT
WIND   - DIRECTION AND SPEED IN MILES PER HOUR (MPH)
VRB    - VARIABLE WIND DIRECTION
PRES   - MEAN SEA LEVEL PRESSURE IN INCHES OF MERCURY
         F - FALLING PRESSURE   R - RISING PRESSURE
         S - STEADY PRESSURE
VSB    - VISIBILITY IN MILES
HX     - HEAT INDEX IN FAHRENHEIT
WCI    - WIND CHILL INDEX IN FAHRENHEIT
TC     - TEMPERATURE IN CELSIUS WHICH IS ALSO KNOWN AS
         TEMPERATURE IN CENTIGRADE
AFB    - AIR FORCE BASE
         LUKE AFB IS LUKE AIR FORCE BASE
         DAVIS-MONTHAN IS DAVIS-MONTHAN AIR FORCE BASE
NAS    - NAVAL AIR STATION
         EL CENTRO NAS IS EL CENTRO NAVAL AIR STATION
N/A    - NOT AVAILABLE



USA.gov is the U.S. government's official web portal to all federal, state and local government web resources and services.